Location: Dürabuch
(48.2640°N, 11.2185°E)
Time: 03:25:57
(UTC+00:00)

Cosmos 1825 - Pass Details

Date: 23 May 2024
Orbit: 439 x 442 km, 82.5° (Epoch: 19 June)

Event Time Altitude Azimuth Distance (km) Brightness Sun altitude
Exits shadow 02:36:04 - 187° (S) 2,060 4.8 -7.4°
Reaches altitude 10° 02:37:15 10° 187° (S) 1,561 4.2 -7.2°
Maximum altitude 02:40:39 87° 104° (ESE) 452 1.9 -6.8°
Drops below altitude 10° 02:44:06 10° 10° (N) 1,581 5.5 -6.4°
Sets 02:46:11 0° 10° (N) 2,459 6.6 -6.1°
